Dewpoint
21 17 14 16 23 24 21 21 20 22 24 23 24 25 26 28 29 30 31 33 34 36 36 40 45 47 50 57 59 62 58 60 60 63 63 64 63 65 65 65 67 67 67 67
20 15 16 18 18 21 22 21 21 22 24 25 26 26 27 28 29 30 31 32 33 34 35 39 43 48 52 55 57 60 58 59 63 63 65 65 65 65 65 66 68 68 67 67
19 17 16 18 17 18 20 21 21 21 23 24 24 24 26 27 28 29 29 31 32 34 37 41 42 47 51 53 56 57 58 60 64 66 66 66 66 65 65 66 66 67 67 67
17 18 16 15 14 17 18 19 21 22 22 20 23 17 23 25 26 28 28 30 31 32 34 38 41 45 50 51 50 52 57 60 64 68 66 67 64 63 64 65 66 66 67 67
21 17 13 13 12 14 17 19 18 18 18 20 20 19 20 21 21 23 27 28 30 31 33 32 34 40 45 47 49 54 59 63 64 67 67 66 66 65 65 65 67 67 68 67
26 25 21 17 14 13 13 16 18 19 18 15 18 18 16 15 19 20 22 22 25 27 30 33 36 40 43 50 59 62 63 65 66 66 67 67 67 66 65 66 65 66 65 66
26 26 25 23 15 15 14 15 11 12 14 14 15 16 18 20 21 21 23 24 27 31 35 37 37 37 48 58 62 63 64 65 66 66 66 66 67 67 67 66 64 65 64 64
29 24 21 23 19 13 14 15 10 4 6 9 14 15 15 22 22 26 24 28 31 33 34 36 36 51 57 62 63 64 65 65 66 65 65 66 67 65 65 65 66 63 62 64
29 21 26 28 26 18 14 13 15 13 14 8 10 14 16 18 19 21 23 30 36 39 42 39 52 59 61 63 64 65 65 65 65 64 64 65 65 65 64 66 66 63 65 64
28 26 25 28 27 26 23 17 12 11 6 5 9 11 10 18 16 23 28 35 41 52 47 54 58 61 62 64 65 65 65 64 64 64 64 63 64 64 64 65 64 64 65 64
29 27 21 23 24 29 25 24 17 15 12 9 9 12 24 24 25 26 26 36 48 54 53 57 59 62 63 64 64 64 63 63 63 63 63 63 63 63 64 64 64 64 64 64
31 31 24 19 22 25 24 22 24 18 12 11 11 12 23 28 26 29 26 29 43 56 56 58 60 62 62 63 62 63 63 62 61 62 62 63 63 63 63 63 63 63 63 61
32 28 20 15 25 27 23 23 26 28 25 19 12 11 23 23 23 29 28 26 34 55 57 59 60 61 62 61 61 60 60 60 60 60 61 62 62 63 63 63 63 62 61 61
35 29 23 20 19 25 23 24 25 26 23 19 17 18 19 22 26 29 28 32 36 54 57 58 59 60 61 61 59 58 59 59 59 59 59 61 62 62 62 62 61 61 61 60
33 28 26 27 27 26 25 24 24 23 23 23 21 20 22 27 31 28 31 32 32 49 57 58 59 60 61 60 59 58 58 59 59 57 58 60 61 61 61 61 60 60 60 59
37 31 29 25 24 23 21 21 22 23 24 24 25 24 28 31 31 28 28 27 32 45 55 57 59 59 60 59 58 59 58 58 58 57 58 59 60 60 61 61 60 59 59 61
35 33 29 22 21 22 20 20 22 21 23 24 21 23 25 29 30 31 36 40 40 46 55 58 59 60 60 59 59 58 58 58 58 57 58 59 59 59 59 58 59 59 61 62
35 32 30 24 27 17 15 29 29 30 32 32 28 26 26 27 28 34 38 41 44 52 56 59 60 60 60 59 59 59 58 57 57 57 57 58 58 58 58 58 58 61 62 63
35 34 28 23 22 21 23 35 35 34 32 34 29 28 29 30 32 40 40 46 53 55 57 59 60 60 60 59 59 58 57 57 57 57 58 58 58 58 58 58 60 62 63 61
36 34 29 25 21 19 31 37 38 38 32 36 34 32 32 32 39 37 48 54 55 57 58 59 59 60 60 60 59 58 56 56 56 58 58 58 57 57 57 59 60 62 63 62
32 32 27 25 26 29 36 37 38 31 34 43 43 44 45 43 45 49 53 55 57 58 58 59 59 59 60 59 59 58 57 56 57 58 58 57 57 58 59 60 61 62 62 61
32 31 30 30 27 25 37 35 34 38 39 40 42 46 46 48 48 50 51 55 56 56 57 58 58 59 60 59 58 57 57 57 57 59 58 57 59 56 58 60 61 62 63 62
32 33 31 32 33 37 38 35 37 38 37 39 42 48 49 50 49 50 52 54 55 55 56 56 57 58 58 58 58 56 58 58 57 59 58 58 58 58 59 60 62 61 62 60
36 37 32 33 37 38 40 41 44 47 45 47 47 47 47 48 49 50 50 53 55 57 56 56 57 56 57 57 57 57 57 56 57 59 59 59 58 58 60 59 60 61 61 59
37 38 36 35 38 39 40 41 45 45 46 45 46 45 46 49 50 50 51 52 54 55 57 57 56 56 56 57 56 57 56 56 58 59 59 59 58 59 59 59 59 61 61 59
36 37 35 35 40 40 40 44 44 44 45 45 44 44 44 46 49 52 52 54 55 55 56 57 57 56 56 55 56 55 55 56 58 58 57 57 57 58 58 58 57 42 46 45
Lifted_Index
12 11 10 10 10 9 9 8 7 7 7 6 6 6 6 6 5 6 6 6 6 6 6 6 6 6 5 5 4 4 3 2 1 -1 -2 -2 -3 -3 -3 -3 -4 -4 -4 -4
10 10 10 10 10 9 9 8 8 7 7 6 6 6 6 6 6 6 6 6 6 6 6 6 6 6 6 5 4 4 3 2 0 -1 -2 -3 -3 -3 -3 -4 -4 -4 -4 -4
6 7 8 8 9 9 8 8 8 8 7 6 6 5 6 7 7 7 7 7 6 6 6 7 7 6 6 5 5 4 4 2 0 -2 -2 -3 -3 -3 -3 -4 -4 -4 -4 -4
3 3 4 5 6 6 6 7 7 7 7 6 6 5 5 6 7 7 7 7 6 6 7 7 7 7 7 6 6 5 4 2 0 -2 -3 -3 -3 -3 -4 -4 -4 -4 -5 -4
2 2 2 2 2 3 4 5 6 6 6 6 6 5 4 5 5 5 6 6 6 7 7 7 8 8 7 6 6 4 2 1 -1 -2 -3 -3 -4 -4 -4 -4 -5 -5 -5 -5
1 1 1 1 1 1 2 3 4 4 5 5 6 5 4 4 5 5 6 6 6 7 7 7 8 8 6 5 2 1 -0 -1 -2 -2 -3 -3 -4 -4 -4 -5 -5 -5 -5 -4
1 1 1 0 0 0 1 1 1 2 2 4 6 5 3 4 6 7 7 7 7 7 7 7 7 6 4 1 -0 -1 -2 -2 -2 -3 -3 -3 -4 -4 -5 -5 -5 -4 -4 -4
0 0 0 0 0 0 0 0 0 1 1 3 5 5 5 6 7 7 7 7 7 7 6 6 6 4 1 -1 -2 -2 -3 -3 -3 -3 -3 -4 -4 -4 -4 -4 -4 -3 -3 -3
0 0 0 -0 -0 -0 0 0 0 1 1 3 4 5 6 7 7 7 7 6 6 5 5 4 3 1 -1 -2 -3 -3 -3 -3 -3 -3 -4 -4 -4 -4 -3 -3 -3 -2 -2 -2
0 0 0 -0 -0 -0 -0 0 0 1 1 2 3 4 5 7 7 7 7 5 4 3 3 2 0 -1 -2 -3 -3 -3 -3 -4 -4 -4 -4 -4 -3 -3 -2 -2 -2 -2 -2 -2
-0 0 0 0 0 0 0 0 0 0 1 2 3 4 6 7 7 7 7 5 3 1 1 -0 -1 -2 -3 -3 -3 -4 -4 -4 -4 -4 -3 -3 -2 -2 -1 -1 -1 -1 -1 -1
-0 -0 0 0 0 1 1 1 0 0 2 3 4 5 6 7 7 7 6 5 3 1 -1 -1 -2 -3 -3 -3 -4 -4 -4 -3 -3 -2 -2 -1 -1 -1 -1 -1 -1 -1 -0 -0
-0 -0 0 0 0 1 1 1 0 1 2 4 5 5 6 7 7 7 6 5 3 1 -1 -2 -3 -3 -3 -4 -4 -3 -3 -2 -1 -1 -1 -1 -1 -1 -1 -1 -0 -0 0 0
0 0 0 0 1 1 1 1 1 1 2 3 5 5 6 7 7 7 7 6 4 1 -1 -3 -3 -3 -4 -4 -3 -3 -2 -1 -0 -0 -0 -0 -0 -0 -0 -0 0 0 0 -0
0 0 1 1 1 1 1 1 1 2 2 4 5 5 6 7 8 8 8 7 5 2 -1 -3 -3 -3 -4 -3 -3 -2 -1 -0 0 1 1 0 0 0 -0 0 1 1 0 -0
1 1 1 1 1 1 2 2 2 2 3 4 6 6 7 7 8 8 7 7 5 2 -1 -3 -3 -3 -3 -3 -2 -1 -0 0 0 1 1 1 0 0 0 0 1 0 -0 -1
1 1 1 2 1 1 1 1 1 2 3 4 6 7 7 7 7 7 6 5 4 1 -1 -3 -3 -3 -3 -3 -2 -1 -0 0 0 1 1 0 0 0 1 1 1 0 -0 -1
2 2 2 2 2 1 1 1 1 1 2 3 6 7 7 7 7 6 5 4 2 -0 -2 -3 -3 -3 -3 -2 -1 -1 -0 0 0 0 0 0 0 1 1 1 0 -0 -0 -0
2 2 2 2 2 1 1 1 0 1 1 3 5 7 7 7 6 5 4 2 -0 -2 -3 -3 -3 -3 -2 -2 -1 -0 0 0 -0 -0 -0 0 1 1 1 1 0 -0 -0 0
2 2 2 2 1 1 1 1 1 1 2 2 4 5 6 6 5 3 1 -1 -2 -3 -3 -3 -3 -2 -2 -1 -1 -0 0 -0 -1 -1 -1 0 1 1 1 1 0 -0 -0 -0
2 2 2 1 1 1 2 2 2 1 1 2 3 4 4 4 4 2 0 -2 -2 -3 -3 -3 -3 -2 -2 -1 -0 -0 -0 -0 -1 -1 -1 0 1 1 1 1 0 -0 -1 -0
2 2 2 1 1 2 2 3 2 2 2 2 3 3 3 3 3 1 -0 -2 -2 -2 -2 -3 -3 -2 -1 -1 -0 -0 -1 -1 -1 -1 -1 -0 0 1 1 0 -0 -1 -1 -0
2 2 2 2 2 2 3 3 2 2 2 3 3 3 2 2 1 0 -0 -1 -2 -2 -2 -3 -3 -2 -1 -1 -1 -1 -1 -1 -1 -1 -1 -1 -0 -0 -0 -1 -1 -1 -1 -0
3 2 2 2 2 3 3 3 3 2 3 3 3 2 1 0 -0 -0 -1 -1 -1 -2 -2 -3 -3 -2 -1 -1 -1 -1 -1 -1 -1 -2 -1 -1 -1 -1 -1 -1 -1 -1 -1 -1
3 2 2 2 3 4 4 4 3 2 2 3 2 2 1 -0 -1 -1 -1 -0 -1 -1 -2 -3 -3 -2 -1 -1 -1 -1 -1 -1 -1 -2 -1 -1 -2 -2 -1 -1 -1 -1 -1 -0
3 2 2 3 3 4 4 4 3 2 2 2 2 2 1 -0 -1 -1 -0 -0 -1 -1 -2 -3 -3 -2 -2 -1 -1 -1 -1 -1 -1 -1 -1 -2 -2 -2 -1 -1 -0 -0 -0 -0